This is the latest recevied weather packets stored in our database for station/object F6BIJ-13. If no packets are shown the sender has not sent any weather packets the latest 10 day(s).
| Time | Temp. | Humidity | Pressure | Rain* | Wind** | Luminosity | Snow |
|---|---|---|---|---|---|---|---|
| 1778090437 | 11.67° C | 89% | 1011.5 hPa | 0 mm | - | - | - |
| 1778090077 | 11.67° C | 89% | 1011.5 hPa | 0 mm | - | - | - |
| 1778089717 | 11.67° C | 89% | 1011.4 hPa | 0 mm | - | - | - |
| 1778089357 | 12.22° C | 89% | 1011.3 hPa | 0 mm | - | - | - |
| 1778088997 | 12.22° C | 88% | 1011.2 hPa | 0 mm | - | - | - |
| 1778088637 | 11.67° C | 88% | 1011.1 hPa | 0 mm | - | - | - |
| 1778088277 | 12.22° C | 87% | 1011 hPa | 0 mm | - | - | - |
| 1778087917 | 12.78° C | 87% | 1011 hPa | 0 mm | - | - | - |
| 1778087557 | 12.78° C | 86% | 1010.9 hPa | 0 mm | - | - | - |
| 1778087197 | 13.33° C | 86% | 1010.8 hPa | 0 mm | - | - | - |
| 1778086837 | 13.33° C | 85% | 1010.8 hPa | 0 mm | - | - | - |
| 1778086477 | 13.33° C | 85% | 1011 hPa | 0 mm | - | - | - |
| 1778086117 | 13.33° C | 83% | 1011 hPa | 0 mm | - | - | - |
| 1778085757 | 13.33° C | 83% | 1011 hPa | 0 mm | - | - | - |
| 1778085397 | 13.33° C | 79% | 1011 hPa | 0 mm | - | - | - |
| 1778085037 | 13.89° C | 78% | 1011 hPa | 0 mm | - | - | - |
| 1778084677 | 13.89° C | 78% | 1011.2 hPa | 0 mm | - | - | - |
| 1778084317 | 13.89° C | 79% | 1011.2 hPa | 0 mm | - | - | - |
| 1778083957 | 14.44° C | 74% | 1011.1 hPa | 0 mm | - | - | - |
| 1778083597 | 13.89° C | 73% | 1011 hPa | 0 mm | - | - | - |
| 1778083237 | 14.44° C | 74% | 1011.3 hPa | 0 mm | - | - | - |
| 1778082877 | 14.44° C | 73% | 1011.2 hPa | 0 mm | - | - | - |
| 1778082517 | 14.44° C | 71% | 1011.2 hPa | 0 mm | - | - | - |
| 1778082157 | 14.44° C | 73% | 1011.2 hPa | 0 mm | - | - | - |
| 1778081797 | 14.44° C | 71% | 1011.2 hPa | 0 mm | - | - | - |
* Rain latest 24 hours (hover to see other rain measurements)
** Current wind speed in m/s (hover to see current wind gust speed)